GW1675 Weather Reports


time (UTC)temp
F
wind
direction
speed
knots
gust
knots
rain 1hr
in
rain 24hr
in
rain mn
in
humidity
%
barometer
mb
20260510193049 62 189 2.6 8.7 0.00 0.10 0.10 73 1016.5
20260510191547 62 189 1.7 7.0 0.00 0.10 0.10 73 1016.3
20260510190050 63 189 5.2 12.2 0.00 0.10 0.10 73 1016.4
20260510184546 63 189 7.0 13.9 0.00 0.10 0.10 73 1016.3
20260510183056 63 189 7.8 14.8 0.00 0.10 0.10 73 1016.3
20260510181617 63 196 10.4 19.1 0.00 0.10 0.10 73 1016.3
20260510180055 64 190 7.0 13.9 0.00 0.10 0.10 73 1016.2
20260510174555 64 191 6.1 13.9 0.00 0.10 0.10 72 1016.2
20260510173045 64 186 9.6 13.9 0.00 0.10 0.10 72 1016.1
20260510171545 65 196 9.6 14.8 0.00 0.10 0.10 72 1016.2
20260510170045 65 203 7.0 13.9 0.00 0.10 0.10 73 1016.1
20260510164545 66 198 7.8 13.9 0.00 0.10 0.10 73 1016.0
20260510163053 66 199 7.0 13.9 0.00 0.10 0.10 73 1015.9
20260510161545 67 201 7.8 14.8 0.00 0.10 0.10 73 1015.9
20260510160044 67 205 7.8 15.6 0.00 0.10 0.10 74 1015.7
20260510154538 67 198 8.7 15.6 0.00 0.10 0.10 74 1015.8
20260510153050 67 197 10.4 18.2 0.00 0.10 0.10 74 1015.9
20260510151549 67 186 7.8 17.4 0.00 0.10 0.10 75 1015.6
20260510150048 66 193 11.3 20.0 0.00 0.10 0.10 75 1015.7
20260510144545 67 198 9.6 18.2 0.00 0.10 0.10 75 1015.8
20260510143059 67 191 9.6 20.9 0.00 0.10 0.10 75 1015.9
20260510141545 67 193 7.8 17.4 0.00 0.10 0.10 76 1016.0
20260510140045 67 213 9.6 20.9 0.00 0.10 0.10 76 1015.9
20260510134555 67 211 10.4 21.7 0.00 0.10 0.10 76 1015.9
20260510133044 67 201 9.6 16.5 0.00 0.10 0.10 77 1015.9
20260510131546 67 197 10.4 20.9 0.00 0.10 0.10 77 1015.9
20260510130045 67 194 8.7 17.4 0.00 0.10 0.10 77 1015.9
20260510124551 67 202 12.2 18.2 0.00 0.10 0.10 78 1015.9
20260510123046 67 211 11.3 20.9 0.00 0.10 0.10 78 1015.9
20260510121545 66 201 7.8 20.0 0.00 0.10 0.10 79 1015.9
20260510120046 66 193 7.0 19.1 0.00 0.10 0.10 79 1016.0
20260510114554 66 203 9.6 20.0 0.00 0.10 0.10 79 1015.9
20260510113051 66 191 12.2 18.2 0.00 0.10 0.10 80 1015.9
20260510111548 66 188 10.4 18.2 0.00 0.10 0.10 80 1015.8
20260510110044 65 187 8.7 15.6 0.00 0.10 0.10 80 1016.1
20260510104545 65 193 6.1 13.0 0.00 0.10 0.10 81 1016.0
20260510103052 64 198 7.8 13.0 0.00 0.10 0.10 81 1016.0
20260510101544 64 200 7.8 14.8 0.00 0.10 0.10 81 1016.0
20260510100106 64 204 10.4 17.4 0.00 0.10 0.10 82 1015.9
20260510094549 65 197 8.7 19.1 0.00 0.10 0.10 82 1015.8
20260510093049 64 190 7.8 15.6 0.00 0.10 0.10 83 1015.4
20260510091544 64 185 6.1 17.4 0.00 0.10 0.10 83 1015.4
20260510090055 64 181 9.6 18.2 0.00 0.10 0.10 83 1015.1
20260510084549 63 182 5.2 12.2 0.00 0.10 0.10 83 1015.0
20260510083054 62 184 6.1 13.0 0.00 0.10 0.10 83 1014.9
20260510081549 62 184 4.3 10.4 0.00 0.10 0.10 83 1014.9
20260510080052 61 184 3.5 7.8 0.00 0.10 0.10 83 1014.9
20260510074544 60 184 3.5 9.6 0.00 0.15 0.10 83 1014.8
20260510073044 60 184 2.6 11.3 0.00 0.15 0.10 83 1014.9
20260510071553 59 184 4.3 10.4 0.00 0.15 0.10 82 1014.7
20260510070050 58 184 1.7 5.2 0.00 0.15 0.10 82 1014.5
20260510064546 57 184 2.6 9.6 0.01 0.16 0.10 82 1014.6
20260510063046 57 184 0.9 3.5 0.03 0.16 0.10 82 1014.3
20260510061550 56 184 1.7 4.3 0.03 0.16 0.10 81 1014.3
20260510060047 56 184 2.6 5.2 0.03 0.16 0.10 81 1014.1
20260510054545 56 184 0.0 1.7 0.01 0.15 0.07 81 1014.3
20260510053049 56 0 0.0 0.0 0.00 0.14 0.06 81 1014.2
20260510051546 56 0 0.0 0.0 0.00 0.14 0.06 81 1014.1
20260510050047 57 184 0.9 3.5 0.00 0.14 0.06 81 1013.8
20260510044546 57 184 1.7 4.3 0.00 0.14 0.06 81 1013.7
20260510043053 56 184 2.6 5.2 0.06 0.14 0.06 81 1013.7
20260510041545 57 184 1.7 3.5 0.06 0.14 0.06 81 1013.8
20260510040053 57 184 1.7 7.8 0.06 0.14 0.06 81 1013.8
20260510034546 58 184 4.3 7.8 0.03 0.11 0.03 81 1013.8
20260510033110 58 185 4.3 7.8 0.00 0.07 0.00 81 1013.8
20260510031551 60 185 2.6 6.1 0.00 0.07 0.00 81 1013.9
20260510030045 59 185 2.6 5.2 0.00 0.07 0.00 81 1013.9
20260510024546 59 185 1.7 4.3 0.00 0.14 0.00 81 1013.8
20260510023045 59 185 1.7 4.3 0.00 0.14 0.00 81 1013.7
20260510021547 59 185 1.7 4.3 0.00 0.14 0.00 80 1013.9
20260510020046 59 185 0.9 1.7 0.00 0.14 0.00 80 1014.0
20260510014544 59 185 0.0 1.7 0.00 0.20 0.00 80 1014.1
20260510013049 59 185 0.0 3.5 0.00 0.20 0.00 80 1014.1
20260510011552 60 185 0.9 1.7 0.00 0.20 0.00 80 1014.2
20260510010045 60 0 0.9 3.5 0.00 0.20 0.00 80 1014.2
20260510004550 60 185 0.9 3.5 0.00 0.20 0.00 80 1014.5
20260510003104 59 185 0.9 2.6 0.00 0.20 0.00 79 1014.6
20260510001545 60 0 0.9 3.5 0.00 0.20 0.00 79 1014.7
20260510000047 60 185 1.7 3.5 0.00 0.20 0.00 79 1014.7
20260509234601 60 185 1.7 4.3 0.00 0.29 0.00 79 1014.9
20260509233047 60 185 1.7 4.3 0.00 0.29 0.00 79 1015.1
20260509231552 61 185 4.3 7.0 0.00 0.29 0.00 79 1015.2
20260509230053 60 185 2.6 5.2 0.00 0.29 0.00 79 1015.2
20260509224549 60 185 4.3 7.8 0.00 0.33 0.29 79 1015.1
20260509223053 61 185 1.7 7.8 0.00 0.33 0.29 79 1015.2
20260509221545 61 185 2.6 6.1 0.00 0.33 0.29 79 1015.2
20260509220050 60 185 3.5 11.3 0.00 0.33 0.29 79 1015.2
20260509214549 61 185 4.3 8.7 0.00 0.33 0.29 79 1015.1
20260509213050 61 185 0.9 2.6 0.00 0.33 0.29 79 1015.0
20260509211544 61 185 1.7 4.3 0.00 0.33 0.29 78 1015.0
20260509210048 61 185 1.7 4.3 0.00 0.33 0.29 78 1014.9
20260509204545 61 185 2.6 7.0 0.00 0.33 0.29 78 1014.6
20260509203044 61 185 2.6 5.2 0.00 0.33 0.29 78 1014.6
20260509201546 61 185 2.6 6.1 0.00 0.33 0.29 77 1014.3
20260509200053 61 185 2.6 7.8 0.00 0.33 0.29 77 1014.1
20260509194542 61 185 2.6 8.7 0.00 0.33 0.29 77 1013.9